Temperature
20 20 20 20 23 24 24 23 24 23 23 22 22 22 22 21 21 20 17 16 16 16 16 16 16 16 16 16 16 16 16 16 16 16 16 16 16 16 16 16 16 16 16 16 16 16 17 17 17
20 20 20 22 25 24 23 23 23 23 22 21 21 21 21 20 19 18 17 16 16 16 16 16 16 16 16 16 16 16 16 16 16 16 16 16 16 16 16 16 16 16 16 16 16 16 16 16 17
20 20 21 24 25 25 23 23 23 22 21 21 21 21 20 19 18 17 17 16 16 16 16 16 16 16 16 16 16 16 15 15 15 15 15 15 15 16 16 16 16 16 16 16 16 16 16 16 16
20 21 23 25 24 23 23 23 23 22 21 21 21 21 19 18 18 17 16 16 16 16 16 16 16 16 16 16 16 15 15 15 15 15 15 15 15 15 15 15 16 16 16 16 16 16 16 16 16
20 23 24 24 23 23 23 22 22 23 22 21 21 21 19 17 17 17 16 16 16 16 16 16 16 16 16 16 15 15 15 15 15 15 15 15 15 15 15 15 16 16 16 16 16 16 16 16 16
22 24 25 24 23 22 22 22 22 22 21 21 21 20 18 17 17 17 16 16 16 16 16 16 16 16 16 16 15 15 15 15 15 15 15 15 15 15 15 15 15 16 16 16 16 16 16 16 16
23 24 24 24 23 22 22 21 22 22 22 21 21 20 18 17 17 17 16 16 16 16 16 16 16 16 16 16 16 16 15 15 15 15 15 15 15 15 15 15 15 15 16 16 16 16 16 16 16
21 24 24 23 23 22 22 21 21 22 21 20 20 20 19 17 17 17 16 16 16 16 16 16 16 16 16 16 16 16 15 15 15 15 15 15 15 15 15 15 15 15 15 16 16 16 16 16 16
21 24 23 23 23 22 21 22 21 20 21 20 20 20 19 17 17 17 17 17 17 16 16 16 16 16 16 16 16 15 15 15 15 15 15 15 15 15 15 15 16 16 16 16 15 16 16 16 16
22 23 22 22 22 22 21 22 21 21 21 20 19 19 18 17 17 17 17 17 17 17 17 17 16 16 16 16 15 15 15 15 15 15 15 15 15 15 15 15 15 15 15 15 15 16 16 16 16
22 22 22 21 21 21 21 21 21 22 22 21 20 18 18 18 18 18 18 18 17 17 17 17 17 16 16 16 16 15 15 15 15 15 15 15 15 15 15 15 15 15 15 15 15 15 15 16 16
22 21 21 21 20 21 21 21 21 21 21 20 19 19 18 18 18 18 18 18 17 17 17 17 17 17 16 16 16 15 15 15 15 15 15 15 15 15 15 15 15 15 15 15 15 15 15 16 16
22 21 20 20 20 20 20 21 21 20 20 20 19 19 19 19 18 18 18 18 17 17 17 17 16 17 16 16 16 16 15 15 15 15 15 15 15 15 15 15 15 15 15 15 15 15 15 15 15
21 21 20 20 20 20 21 21 20 20 19 19 19 19 19 19 18 18 18 18 18 17 17 17 16 16 16 16 16 16 15 15 15 15 15 15 15 15 15 15 15 15 15 15 15 15 15 15 15
21 21 21 21 21 20 21 21 21 19 19 19 19 19 19 18 18 18 18 18 18 18 17 17 16 16 16 16 16 16 15 15 15 15 15 15 15 15 15 15 15 15 15 15 15 15 15 15 15
22 22 21 21 21 20 21 20 21 19 19 19 19 19 18 18 18 18 18 18 18 18 17 17 16 16 16 16 16 16 15 15 15 15 15 15 15 15 15 15 15 15 15 15 15 15 15 15 15
22 21 21 21 21 21 21 21 21 20 20 20 19 19 19 19 19 18 18 18 18 18 17 17 16 16 16 16 16 15 15 15 15 15 15 15 15 15 15 15 15 15 15 15 15 15 15 15 15
22 22 21 21 21 21 21 21 21 20 20 20 20 20 19 19 19 18 18 18 18 18 17 17 16 16 16 16 16 15 15 15 15 15 15 15 15 15 15 15 15 15 15 15 15 15 15 15 15
22 22 21 21 21 21 21 21 21 20 20 20 20 20 20 19 19 18 18 18 18 17 17 17 17 16 16 16 16 15 15 15 15 15 15 15 15 15 15 15 15 15 15 15 15 15 15 15 15
21 21 21 21 21 21 21 21 22 21 21 21 21 21 20 20 19 18 18 18 18 17 17 17 17 16 16 16 16 15 15 15 15 15 15 15 15 15 15 15 15 15 15 15 15 15 15 15 15
21 21 21 21 21 21 21 21 21 22 21 20 20 20 21 20 19 19 18 18 18 18 17 17 17 16 16 16 16 16 15 15 15 15 15 15 15 15 15 15 15 15 15 15 15 15 14 15 15
21 21 21 21 21 21 21 21 22 22 21 21 20 20 20 20 19 19 18 18 18 18 17 17 17 17 16 16 16 16 15 15 15 15 15 15 15 15 15 15 15 15 15 15 15 15 15 14 15
21 21 21 21 21 21 21 21 22 22 22 22 21 21 20 20 19 19 19 18 18 18 18 17 17 17 17 16 16 16 16 15 15 15 15 15 15 15 15 15 15 15 15 15 15 15 15 14 15
21 21 21 21 21 21 22 22 22 23 23 23 22 21 20 20 19 19 19 18 18 18 18 17 17 17 17 16 16 16 16 16 15 15 15 15 15 15 15 15 15 15 15 15 15 15 15 15 15
21 21 21 20 21 21 22 22 23 24 24 23 23 22 21 20 19 19 19 18 18 18 18 18 17 17 17 17 16 16 16 16 15 15 15 15 15 15 15 15 15 15 15 15 15 14 14 14 15
21 21 21 20 21 21 21 22 24 24 23 22 22 22 21 20 20 19 19 19 18 18 18 18 18 17 17 17 16 16 16 16 16 15 15 15 15 15 15 15 15 15 15 15 14 14 14 14 14
21 21 21 21 21 21 22 23 23 23 23 22 22 21 21 20 20 19 19 19 18 18 18 18 18 17 17 17 17 16 16 16 16 16 15 15 15 15 15 15 15 15 15 15 14 14 14 14 14
21 21 21 21 21 21 22 22 23 23 23 23 23 22 21 21 20 19 19 19 19 18 18 18 18 17 17 17 17 17 16 16 16 16 16 15 15 15 15 15 15 15 15 15 15 14 14 14 15
21 21 21 21 21 21 21 23 24 23 23 23 23 22 21 21 20 20 19 19 19 18 18 18 18 18 17 17 17 17 17 16 16 16 16 16 15 15 15 15 15 15 15 15 15 14 14 14 14
21 22 21 21 21 21 22 22 24 23 23 23 23 22 21 21 20 20 19 19 19 18 18 18 18 18 18 18 17 17 17 17 16 16 16 16 15 15 15 15 15 15 15 15 14 14 14 14 14
Wind_Speed
3 2 2 2 3 2 4 4 4 5 4 5 6 5 7 7 5 7 6 6 7 8 9 10 10 11 11 11 11 11 11 11 10 10 10 9 9 8 8 8 7 7 7 7 6 6 6 5 5
2 1 3 3 2 3 4 4 6 7 6 6 6 6 7 7 7 8 7 8 8 9 9 11 11 11 11 11 11 11 10 10 10 9 9 8 8 8 8 7 7 7 7 6 6 6 6 6 5
1 2 2 1 1 2 5 6 8 8 6 4 5 6 5 6 6 6 8 10 9 9 10 11 10 10 10 10 10 10 9 9 9 9 8 8 8 7 7 7 7 7 6 6 6 5 5 5 5
2 2 2 1 6 5 5 7 8 8 5 5 6 8 6 6 5 9 11 10 10 9 10 11 9 10 9 9 9 9 9 8 8 8 8 7 7 7 7 6 6 6 6 5 5 5 5 5 5
2 2 2 4 5 5 6 6 5 4 4 5 6 9 8 6 10 12 11 10 10 9 10 11 9 8 8 9 9 9 8 8 8 8 7 7 7 7 6 5 5 5 4 4 4 4 5 5 5
2 2 3 5 6 6 5 4 4 5 7 7 9 10 8 8 11 11 10 9 9 9 9 10 9 8 8 8 9 8 8 8 8 8 7 7 7 6 6 6 5 5 4 4 4 4 5 5 5
1 0 2 5 6 6 4 3 4 6 7 7 7 9 9 9 10 10 9 8 8 7 7 7 8 9 8 8 8 8 8 8 8 8 7 7 7 7 6 6 6 5 5 5 5 5 6 6 6
2 1 4 3 5 5 4 4 5 6 7 7 5 7 10 12 11 10 9 8 7 7 6 7 7 6 6 7 8 8 8 8 8 8 8 5 4 5 5 5 7 6 6 7 7 7 7 7 7
2 2 3 3 3 5 5 6 4 4 7 5 4 7 13 15 12 10 9 8 7 6 6 6 6 6 5 6 6 6 7 6 4 6 5 2 4 5 5 10 9 8 8 8 7 7 7 6 7
1 1 3 3 3 5 6 6 5 6 7 8 10 12 15 14 12 10 9 8 8 7 6 6 5 5 5 5 5 5 6 5 6 6 6 5 5 5 5 7 7 7 6 7 7 5 4 2 6
2 3 4 3 4 5 6 5 4 6 7 10 14 16 15 13 11 9 8 7 7 6 6 6 5 5 5 5 5 5 5 4 5 6 6 5 4 4 4 4 5 5 3 5 6 4 6 6 6
4 5 4 4 4 5 5 5 5 4 6 10 14 16 14 13 10 9 8 7 7 7 6 5 5 5 5 5 5 4 4 4 5 5 6 5 4 4 5 4 5 4 5 4 5 5 7 7 8
5 5 5 5 5 5 6 6 6 6 8 12 14 13 12 11 10 8 7 6 6 6 6 6 5 5 6 6 4 5 5 5 6 5 5 6 4 4 4 5 4 5 5 5 5 5 7 7 8
6 7 7 6 6 5 6 6 6 7 10 12 12 11 11 10 9 8 7 6 7 7 7 6 5 5 5 5 4 5 5 5 6 6 6 6 6 5 4 5 5 5 5 5 5 6 6 6 7
7 8 7 5 5 4 5 6 7 8 10 11 10 9 9 9 8 7 7 6 7 8 7 7 5 5 5 5 5 5 5 5 6 6 6 7 6 5 4 4 4 5 5 5 6 7 6 6 7
5 5 4 4 3 3 4 6 8 8 10 9 8 9 8 8 7 6 6 7 7 8 7 7 4 4 4 4 4 5 5 5 5 5 6 6 6 6 5 4 4 4 5 5 5 5 5 7 7
4 5 5 5 3 3 3 6 8 9 10 9 9 8 8 8 7 7 7 7 7 7 7 6 5 5 5 4 4 5 6 5 5 6 6 6 7 6 5 5 4 5 4 4 4 5 6 7 7
5 5 5 5 3 4 5 6 8 9 9 9 9 8 8 8 7 7 7 7 7 7 7 7 6 5 5 4 4 4 5 5 5 6 6 7 6 6 6 5 5 5 4 4 5 6 6 6 6
4 5 5 4 3 4 5 7 8 9 9 10 9 9 9 8 8 7 7 7 8 7 7 7 6 6 4 3 3 3 4 4 5 6 7 6 6 6 6 4 5 4 5 5 5 6 7 6 6
5 6 5 3 3 3 4 5 7 9 11 10 10 11 11 10 10 9 9 8 8 8 7 7 6 6 5 3 3 3 3 4 4 5 6 6 6 6 5 5 4 4 4 4 5 5 4 4 2
5 5 5 4 2 3 4 5 8 9 9 9 9 9 10 11 12 12 11 10 9 8 8 7 7 6 5 5 4 4 4 3 4 4 5 6 7 7 6 6 5 4 3 4 3 3 3 3 3
4 3 4 5 4 3 4 3 7 10 11 11 11 11 11 11 11 11 11 11 10 9 8 8 7 7 6 5 4 4 3 3 4 3 4 5 6 6 6 6 6 5 4 4 3 3 2 2 2
2 3 4 4 4 3 5 4 4 8 10 12 13 13 12 12 12 12 12 11 11 10 9 8 8 7 6 5 4 3 3 3 3 3 4 4 5 6 6 6 5 5 5 5 4 3 2 1 1
5 5 4 4 4 4 4 5 3 7 9 10 12 14 14 13 12 12 11 11 10 9 9 9 8 7 6 6 5 4 4 4 4 4 4 3 4 4 5 5 5 5 5 5 4 4 4 3 3
6 5 4 4 4 2 2 4 3 3 5 8 10 13 14 14 13 13 13 13 12 11 10 10 9 8 8 7 6 5 5 5 4 4 3 3 3 3 4 4 5 5 5 5 5 5 5 5 4
6 6 3 2 2 2 3 4 1 1 3 6 8 11 13 13 13 13 14 13 13 13 12 11 10 9 8 8 6 6 6 4 3 3 3 3 3 3 4 4 4 5 5 4 4 4 5 4 4
4 4 2 2 1 2 3 3 2 2 4 6 8 10 13 13 13 13 14 14 13 13 13 12 11 10 9 9 7 6 6 5 4 4 3 3 3 3 3 4 4 4 4 4 4 4 4 4 4
2 2 3 4 3 3 3 4 3 5 4 5 7 10 12 12 13 13 13 13 13 13 13 12 12 11 10 9 8 6 6 6 5 4 4 3 3 4 3 3 4 4 4 4 3 4 4 4 5
5 4 4 3 3 2 2 2 1 2 2 4 5 8 10 12 12 12 12 13 13 13 13 12 12 11 10 10 9 8 7 6 6 5 4 4 4 4 4 3 3 3 3 4 3 3 3 3 4
5 5 6 4 3 3 2 1 1 1 2 3 3 5 8 10 11 11 12 13 13 13 13 13 12 12 11 10 9 9 8 7 7 6 6 5 5 4 4 4 3 3 3 3 3 3 3 3 3
Wind_Direction
295 299 259 243 224 126 86 81 94 100 80 76 73 79 79 57 47 88 103 109 106 106 103 103 93 92 89 88 87 84 81 78 76 73 72 70 70 69 69 69 66 65 63 62 63 66 63 62 67
309 278 246 247 239 130 97 100 100 83 101 104 83 79 80 73 73 98 114 113 114 107 103 96 95 92 90 88 86 82 78 73 69 68 67 66 66 64 65 66 62 61 59 59 59 62 59 59 63
249 259 273 244 94 81 106 109 104 100 101 96 92 72 68 83 94 102 115 124 117 107 103 100 96 90 89 87 83 79 74 69 66 65 64 63 62 60 59 59 58 56 57 61 63 60 55 56 60
243 225 230 121 94 68 98 118 121 120 98 81 104 92 82 69 87 112 122 124 117 110 104 99 93 89 87 84 80 76 69 64 62 61 60 58 57 56 53 52 56 56 54 56 61 60 58 59 65
245 246 172 120 96 93 103 115 121 109 97 101 109 105 95 83 104 116 122 122 117 110 104 101 94 90 85 80 76 71 65 60 57 54 55 55 51 51 48 48 54 54 53 54 58 61 58 65 76
237 238 174 130 112 113 116 122 125 102 108 116 115 111 101 116 118 118 120 119 112 108 105 105 105 93 84 79 73 67 61 57 55 52 52 51 47 46 46 44 46 48 53 57 65 68 66 72 79
294 200 132 128 129 126 116 116 122 120 122 119 122 115 122 131 123 123 122 119 112 109 108 108 109 108 102 84 69 62 58 56 55 55 54 52 50 48 46 42 44 53 57 60 70 75 75 78 83
343 156 136 135 139 119 118 115 111 120 113 118 130 131 141 140 134 127 123 121 117 114 110 107 103 97 94 93 80 64 60 57 59 60 54 54 78 76 55 57 57 60 66 69 75 77 77 80 80
280 197 143 123 130 118 137 135 112 117 124 119 110 117 132 136 137 134 130 128 122 117 112 107 100 88 82 79 81 81 80 64 71 77 67 36 51 58 68 55 56 62 71 73 75 80 85 96 98
332 143 100 85 97 127 138 134 131 143 132 123 117 118 131 142 145 142 139 133 128 123 116 110 101 94 87 80 83 70 70 62 49 46 46 44 51 50 55 84 71 68 79 93 84 100 127 133 101
64 88 99 94 102 127 132 126 138 149 139 139 139 140 144 147 146 141 134 128 121 120 115 110 104 94 85 84 74 65 64 60 56 47 47 42 51 60 59 67 89 84 91 87 102 113 83 84 80
98 89 98 109 115 133 130 127 125 117 116 134 140 143 147 149 145 141 133 128 126 121 116 112 108 100 88 81 76 70 64 56 52 44 40 42 47 48 55 58 58 66 69 68 78 80 84 86 84
104 110 103 110 115 117 118 116 109 105 119 132 138 145 149 146 143 138 134 135 134 130 127 117 110 97 91 81 72 70 61 50 61 46 38 41 44 48 56 64 59 64 71 85 83 83 85 82 78
112 120 118 114 115 115 118 114 121 122 132 138 146 151 152 150 150 146 148 146 145 142 132 127 119 103 92 90 79 63 61 64 54 48 45 42 44 49 52 67 62 62 65 76 88 87 88 86 82
128 127 120 115 116 121 129 118 128 140 147 148 151 153 154 157 159 161 155 151 148 145 138 131 123 112 94 82 71 66 60 62 56 49 44 48 46 48 54 60 66 66 75 87 86 87 88 91 90
150 158 143 121 127 146 175 137 135 155 158 157 160 158 165 168 169 163 160 158 152 149 142 136 136 123 103 88 78 72 67 63 57 52 44 45 48 50 53 57 65 72 82 90 94 93 96 93 87
178 171 153 143 144 165 181 149 157 169 168 169 172 167 171 171 169 166 164 161 158 155 149 146 141 131 118 104 93 79 77 66 57 52 47 43 47 48 58 54 57 78 88 92 96 92 94 95 92
175 172 166 159 161 188 182 162 163 175 180 181 179 180 179 176 174 168 165 164 163 162 158 149 145 146 131 124 109 97 81 72 63 58 53 43 43 46 57 65 65 77 94 95 97 102 99 98 97
181 178 167 151 165 204 190 170 176 181 190 193 190 189 184 178 170 167 169 173 170 170 170 160 162 157 151 138 127 109 90 79 72 62 53 51 48 49 56 58 65 67 87 95 109 113 114 109 109
179 180 164 151 157 210 183 190 191 195 204 203 197 191 186 180 172 172 178 179 179 176 177 171 167 165 159 140 121 109 96 85 76 71 62 51 52 52 56 59 72 78 91 97 105 118 121 118 117
181 194 182 173 169 178 188 207 207 204 209 209 208 203 193 189 182 180 182 182 181 182 181 178 172 166 163 151 134 127 119 118 102 83 66 52 54 57 55 56 64 73 95 100 100 116 125 122 93
177 175 176 179 194 197 215 216 207 205 206 207 207 202 197 196 191 186 186 186 187 186 184 185 178 171 164 163 161 149 133 107 91 83 80 77 63 60 57 60 61 67 73 91 99 89 104 128 114
149 153 170 191 212 232 217 238 197 196 208 206 204 201 198 196 193 190 190 188 187 183 183 183 177 175 172 171 159 163 135 114 113 105 94 83 74 64 63 59 62 66 71 73 73 71 71 88 74
152 154 160 196 223 234 222 230 212 196 207 199 197 198 197 195 195 192 189 184 184 182 180 179 178 175 174 175 170 172 145 140 134 122 106 98 90 77 70 65 68 70 71 72 71 76 77 72 71
195 197 192 193 200 204 180 236 233 191 204 206 199 195 194 193 192 191 189 188 185 183 183 181 179 177 179 179 178 173 165 159 150 139 122 111 100 90 80 76 76 74 73 71 72 79 78 81 79
201 220 230 215 195 171 193 225 185 125 200 204 202 193 190 192 192 190 191 191 189 187 186 185 184 183 181 185 180 176 169 169 153 152 135 121 102 95 94 86 80 80 78 80 75 76 73 74 76
199 203 286 274 231 228 197 200 204 168 169 178 184 184 187 189 190 191 190 192 190 189 188 189 189 188 184 186 182 180 175 173 163 164 153 134 121 114 109 104 98 90 85 79 80 76 78 74 70
263 188 201 221 212 202 193 205 183 164 160 166 177 184 187 187 188 190 191 191 191 190 189 190 195 192 187 188 183 180 180 176 174 170 162 157 142 133 135 125 117 105 97 93 83 82 72 83 77
183 196 216 225 257 252 189 147 90 175 184 179 178 189 191 190 189 189 189 190 188 186 187 188 192 191 187 188 185 182 182 179 178 178 171 170 159 155 150 140 127 114 108 106 101 93 93 91 92
233 228 220 228 213 247 257 140 101 236 226 210 197 192 192 191 190 189 186 185 186 188 188 189 191 189 188 187 186 186 181 182 184 180 178 175 166 162 159 149 141 124 117 113 113 112 107 96 93
Height
1523 1522 1523 1524 1522 1521 1525 1526 1523 1527 1529 1533 1533 1533 1533 1536 1539 1547 1549 1548 1549 1549 1549 1549 1549 1549 1549 1549 1549 1549 1549 1548 1548 1548 1547 1547 1547 1546 1546 1546 1545 1545 1545 1545 1545 1545 1545 1544 1544
1523 1523 1525 1524 1519 1525 1529 1526 1526 1529 1532 1534 1535 1536 1536 1541 1544 1547 1548 1549 1550 1551 1551 1551 1550 1551 1551 1550 1550 1550 1550 1550 1549 1549 1548 1548 1547 1547 1547 1546 1546 1546 1545 1545 1545 1545 1545 1545 1545
1523 1523 1526 1521 1520 1524 1529 1527 1529 1532 1534 1535 1537 1538 1540 1544 1547 1548 1549 1550 1551 1552 1553 1552 1552 1552 1552 1552 1552 1552 1551 1551 1550 1550 1549 1549 1548 1548 1547 1547 1546 1546 1546 1546 1546 1546 1546 1545 1546
1524 1526 1525 1521 1526 1527 1526 1529 1531 1533 1535 1537 1537 1540 1544 1548 1548 1550 1550 1552 1553 1554 1554 1554 1553 1554 1554 1553 1553 1553 1552 1552 1551 1551 1550 1550 1549 1549 1548 1548 1547 1547 1547 1546 1546 1546 1546 1546 1546
1525 1525 1522 1525 1528 1529 1529 1532 1533 1533 1535 1538 1538 1542 1546 1549 1550 1551 1552 1554 1555 1556 1556 1556 1555 1555 1555 1555 1555 1554 1554 1554 1553 1552 1552 1551 1550 1550 1549 1549 1548 1548 1547 1547 1547 1547 1547 1546 1546
1526 1522 1522 1527 1530 1531 1533 1534 1535 1535 1538 1540 1541 1543 1549 1551 1552 1553 1554 1555 1556 1557 1558 1557 1557 1557 1557 1557 1556 1556 1555 1555 1554 1554 1553 1552 1552 1551 1550 1550 1549 1549 1548 1548 1548 1547 1547 1547 1547
1526 1522 1524 1526 1530 1532 1534 1536 1536 1537 1538 1541 1542 1545 1550 1552 1554 1555 1556 1557 1558 1558 1559 1559 1560 1559 1559 1558 1558 1558 1557 1556 1556 1555 1554 1554 1553 1552 1552 1551 1550 1550 1549 1549 1548 1548 1548 1548 1548
1526 1524 1525 1526 1530 1533 1536 1537 1538 1538 1540 1543 1544 1545 1550 1553 1554 1556 1557 1559 1559 1560 1561 1561 1561 1562 1562 1561 1560 1559 1558 1558 1557 1556 1556 1555 1554 1554 1553 1552 1551 1551 1550 1550 1550 1549 1549 1549 1549
1527 1525 1527 1529 1530 1533 1536 1537 1539 1540 1542 1544 1545 1547 1550 1553 1555 1557 1559 1560 1561 1562 1562 1563 1563 1563 1563 1563 1561 1561 1560 1559 1559 1558 1557 1556 1557 1556 1555 1554 1553 1552 1552 1551 1551 1551 1550 1550 1550
1527 1526 1529 1531 1531 1533 1536 1537 1539 1540 1542 1544 1547 1549 1552 1554 1556 1558 1560 1561 1562 1563 1564 1564 1564 1564 1564 1564 1563 1563 1562 1561 1561 1560 1559 1558 1557 1557 1556 1555 1554 1554 1553 1552 1552 1552 1552 1552 1553
1528 1529 1531 1533 1534 1535 1536 1538 1540 1540 1541 1544 1547 1550 1553 1555 1558 1559 1561 1562 1563 1564 1565 1565 1566 1566 1566 1565 1565 1564 1563 1562 1562 1561 1560 1559 1559 1558 1558 1557 1556 1556 1555 1555 1554 1554 1555 1554 1554
1530 1533 1533 1535 1536 1537 1537 1539 1540 1541 1543 1546 1548 1551 1554 1556 1558 1560 1562 1563 1565 1565 1566 1566 1567 1567 1567 1567 1566 1565 1565 1564 1564 1563 1562 1561 1560 1560 1559 1558 1557 1557 1556 1556 1556 1556 1556 1556 1556
1531 1534 1536 1537 1538 1538 1539 1540 1542 1544 1546 1548 1550 1553 1555 1557 1559 1561 1563 1564 1565 1566 1567 1568 1568 1569 1568 1567 1567 1567 1566 1566 1565 1563 1563 1562 1562 1561 1560 1559 1558 1558 1558 1558 1558 1558 1558 1558 1558
1533 1535 1537 1538 1539 1540 1540 1541 1543 1546 1548 1550 1552 1554 1556 1558 1560 1562 1564 1565 1566 1567 1568 1569 1569 1569 1569 1569 1569 1568 1568 1566 1566 1565 1565 1564 1563 1562 1561 1561 1560 1560 1559 1559 1559 1559 1559 1560 1560
1534 1535 1537 1538 1539 1541 1541 1542 1544 1547 1549 1551 1553 1555 1557 1559 1561 1563 1564 1566 1567 1568 1569 1570 1570 1570 1570 1570 1570 1569 1569 1569 1568 1566 1566 1565 1564 1564 1563 1563 1562 1561 1561 1561 1561 1561 1561 1561 1561
1533 1534 1538 1539 1539 1541 1542 1546 1546 1548 1550 1551 1553 1555 1558 1560 1561 1563 1565 1566 1568 1569 1570 1570 1571 1571 1571 1571 1571 1571 1570 1570 1569 1568 1567 1567 1566 1565 1564 1564 1563 1563 1563 1563 1563 1563 1563 1563 1563
1532 1535 1538 1540 1539 1540 1540 1544 1546 1548 1550 1551 1553 1555 1557 1559 1561 1563 1565 1567 1568 1570 1571 1571 1572 1572 1572 1572 1572 1571 1571 1570 1570 1569 1569 1568 1567 1566 1566 1565 1564 1564 1564 1564 1565 1564 1565 1565 1565
1534 1534 1537 1539 1538 1539 1539 1542 1545 1548 1549 1550 1553 1555 1557 1559 1561 1563 1565 1567 1569 1570 1571 1572 1572 1573 1573 1573 1573 1573 1573 1572 1571 1570 1570 1569 1568 1568 1567 1566 1566 1566 1566 1566 1566 1566 1566 1566 1566
1531 1533 1536 1538 1538 1539 1538 1540 1542 1546 1548 1549 1551 1553 1555 1558 1560 1563 1565 1567 1569 1570 1572 1572 1573 1574 1574 1574 1575 1575 1574 1574 1573 1572 1571 1570 1569 1569 1568 1568 1567 1567 1567 1567 1568 1567 1568 1568 1568
1532 1535 1537 1538 1538 1539 1539 1539 1540 1544 1546 1547 1549 1551 1554 1557 1559 1562 1564 1566 1568 1570 1572 1573 1574 1574 1575 1575 1575 1575 1575 1575 1574 1573 1572 1571 1571 1570 1570 1570 1569 1569 1568 1568 1569 1569 1569 1569 1570
1533 1534 1536 1538 1539 1537 1540 1542 1540 1541 1544 1546 1548 1550 1552 1555 1557 1560 1563 1565 1567 1569 1571 1573 1574 1574 1575 1575 1575 1575 1575 1576 1575 1575 1574 1573 1572 1571 1571 1571 1571 1570 1570 1570 1570 1570 1570 1571 1571
1535 1533 1534 1537 1540 1541 1540 1545 1538 1536 1540 1543 1545 1547 1550 1553 1556 1558 1561 1564 1566 1568 1570 1572 1573 1574 1575 1575 1576 1577 1577 1577 1577 1576 1575 1575 1574 1573 1573 1572 1572 1572 1572 1571 1572 1572 1572 1572 1572
1534 1534 1534 1536 1537 1540 1538 1541 1535 1533 1536 1537 1541 1544 1547 1551 1554 1556 1559 1562 1565 1567 1569 1571 1573 1574 1575 1576 1576 1577 1578 1578 1577 1577 1577 1577 1576 1575 1574 1574 1574 1573 1573 1573 1573 1572 1573 1573 1573
1534 1535 1536 1536 1537 1544 1537 1539 1536 1528 1529 1531 1536 1540 1544 1548 1551 1554 1557 1560 1563 1566 1568 1570 1572 1573 1575 1576 1577 1577 1578 1578 1578 1578 1578 1578 1577 1577 1576 1576 1575 1575 1575 1574 1574 1574 1574 1574 1574
1534 1537 1543 1545 1545 1542 1534 1536 1531 1522 1525 1528 1531 1536 1541 1545 1548 1552 1555 1558 1561 1563 1566 1568 1571 1572 1574 1576 1577 1577 1578 1578 1579 1579 1579 1579 1579 1578 1578 1577 1577 1577 1576 1576 1576 1575 1575 1575 1575
1532 1533 1541 1547 1545 1539 1535 1534 1524 1522 1525 1528 1530 1533 1538 1542 1545 1548 1552 1555 1558 1561 1564 1567 1569 1571 1573 1575 1576 1577 1578 1578 1579 1579 1579 1580 1580 1579 1579 1579 1578 1578 1577 1577 1577 1577 1577 1577 1577
1531 1531 1531 1535 1536 1539 1532 1527 1522 1522 1523 1526 1528 1531 1535 1539 1542 1545 1549 1552 1556 1559 1562 1565 1568 1570 1572 1574 1576 1577 1578 1578 1579 1579 1580 1580 1580 1580 1580 1580 1579 1579 1578 1578 1578 1578 1578 1578 1578
1531 1530 1533 1536 1542 1542 1534 1528 1524 1521 1522 1523 1526 1529 1532 1536 1539 1543 1546 1550 1553 1557 1560 1563 1566 1569 1571 1573 1575 1576 1577 1578 1578 1579 1580 1580 1580 1580 1580 1581 1581 1580 1580 1579 1579 1579 1579 1579 1578
1532 1533 1531 1531 1532 1537 1538 1530 1517 1518 1519 1521 1523 1526 1529 1533 1536 1540 1543 1547 1550 1554 1557 1560 1564 1566 1569 1571 1573 1575 1576 1577 1578 1579 1579 1580 1580 1580 1581 1581 1581 1581 1581 1580 1580 1580 1580 1580 1580
1527 1527 1528 1534 1534 1531 1532 1530 1515 1517 1519 1520 1522 1524 1527 1530 1534 1537 1541 1544 1548 1551 1555 1558 1561 1564 1566 1569 1571 1573 1575 1576 1577 1578 1579 1579 1580 1581 1581 1581 1582 1581 1581 1581 1581 1581 1580 1580 1580